Time,TemperatureF,DewpointF,PressureIn,WindDirection,WindDirectionDegrees,WindSpeedMPH,WindSpeedGustMPH,Humidity,HourlyPrecipIn,Conditions,Clouds,dailyrainin,SoftwareType,DateUTC
2013-10-09 00:22:00,56.0,53.0,30.02,WSW,251,0.0,0.0,90,0.00,,,0.00,,2013-10-09 05:22:00,
2013-10-09 00:52:00,55.0,52.0,30.02,WSW,251,0.0,0.0,90,0.00,,,0.00,,2013-10-09 05:52:00,
2013-10-09 01:22:00,55.0,52.0,30.02,WSW,251,0.0,0.0,90,0.00,,,0.00,,2013-10-09 06:22:00,
2013-10-09 01:42:00,55.0,52.0,30.02,WSW,251,0.0,0.0,91,0.00,,,0.00,,2013-10-09 06:42:00,
2013-10-09 01:52:00,54.0,51.0,30.02,WSW,251,0.0,0.0,91,0.00,,,0.00,,2013-10-09 06:52:00,
2013-10-09 02:21:00,54.0,51.0,30.02,WSW,251,0.0,0.0,91,0.00,,,0.00,,2013-10-09 07:21:00,
2013-10-09 02:42:00,54.0,52.0,30.02,WSW,251,0.0,0.0,92,0.00,,,0.00,,2013-10-09 07:42:00,
2013-10-09 02:52:00,54.0,52.0,30.01,WSW,251,0.0,0.0,92,0.00,,,0.00,,2013-10-09 07:52:00,
2013-10-09 03:23:00,54.0,52.0,30.01,WSW,251,0.0,0.0,93,0.00,,,0.00,,2013-10-09 08:23:00,
2013-10-09 03:42:00,54.0,52.0,30.01,WSW,251,0.0,0.0,93,0.00,,,0.00,,2013-10-09 08:42:00,
2013-10-09 03:53:00,54.0,52.0,30.01,WSW,251,0.0,0.0,92,0.00,,,0.00,,2013-10-09 08:53:00,
2013-10-09 04:22:00,54.0,52.0,30.00,WSW,251,0.0,0.0,93,0.00,,,0.00,,2013-10-09 09:22:00,
2013-10-09 04:43:00,54.0,52.0,30.00,WSW,251,0.0,0.0,93,0.00,,,0.00,,2013-10-09 09:43:00,
2013-10-09 04:53:00,54.0,52.0,30.01,WSW,251,0.0,0.0,94,0.00,,,0.00,,2013-10-09 09:53:00,
2013-10-09 05:23:00,54.0,52.0,30.02,WSW,251,0.0,0.0,94,0.00,,,0.00,,2013-10-09 10:23:00,
2013-10-09 05:53:00,54.0,53.0,30.02,WSW,251,0.0,0.0,95,0.00,,,0.00,,2013-10-09 10:53:00,
2013-10-09 06:22:00,54.0,53.0,30.03,WSW,251,0.0,0.0,95,0.00,,,0.00,,2013-10-09 11:22:00,
2013-10-09 06:52:00,54.0,53.0,30.04,WSW,251,0.0,0.0,95,0.00,,,0.00,,2013-10-09 11:52:00,
2013-10-09 07:12:00,54.0,53.0,30.04,WSW,251,0.0,0.0,95,0.00,,,0.00,,2013-10-09 12:12:00,
2013-10-09 07:21:00,54.0,53.0,30.05,WSW,251,0.0,0.0,95,0.00,,,0.00,,2013-10-09 12:21:00,
2013-10-09 07:42:00,54.0,53.0,30.05,WSW,251,0.0,0.0,95,0.00,,,0.00,,2013-10-09 12:42:00,
2013-10-09 07:52:00,54.0,53.0,30.05,WSW,251,0.0,0.0,95,0.00,,,0.00,,2013-10-09 12:52:00,
2013-10-09 08:11:00,54.0,53.0,30.06,WSW,251,0.0,0.0,95,0.00,,,0.00,,2013-10-09 13:11:00,
2013-10-09 08:22:00,55.0,54.0,30.07,WSW,251,0.0,0.0,96,0.00,,,0.00,,2013-10-09 13:22:00,
2013-10-09 08:42:00,56.0,55.0,30.07,WSW,251,0.0,0.0,97,0.00,,,0.00,,2013-10-09 13:42:00,
2013-10-09 08:52:00,57.0,56.0,30.08,WSW,251,0.0,0.0,97,0.00,,,0.00,,2013-10-09 13:52:00,
2013-10-09 09:22:00,61.0,60.0,30.09,WSW,251,0.0,0.0,98,0.00,,,0.00,,2013-10-09 14:22:00,
2013-10-09 09:42:00,63.0,62.0,30.09,WSW,251,0.0,0.0,98,0.00,,,0.00,,2013-10-09 14:42:00,
2013-10-09 09:52:00,64.0,63.0,30.09,South,189,0.0,3.0,98,0.00,,,0.00,,2013-10-09 14:52:00,
2013-10-09 10:22:00,66.0,65.0,30.10,South,189,0.0,4.0,95,0.00,,,0.00,,2013-10-09 15:22:00,
2013-10-09 10:53:00,69.0,67.0,30.10,SSW,199,0.0,4.0,92,0.00,,,0.00,,2013-10-09 15:53:00,
2013-10-09 11:24:00,70.0,66.0,30.10,WSW,238,0.0,4.0,88,0.00,,,0.00,,2013-10-09 16:24:00,
2013-10-09 11:42:00,71.0,67.0,30.10,SSE,159,0.0,4.0,87,0.00,,,0.00,,2013-10-09 16:42:00,
2013-10-09 11:53:00,71.0,66.0,30.10,SSW,197,0.0,4.0,85,0.00,,,0.00,,2013-10-09 16:53:00,
2013-10-09 12:22:00,73.0,68.0,30.09,SSE,149,0.0,4.0,84,0.00,,,0.00,,2013-10-09 17:22:00,
2013-10-09 12:42:00,74.0,68.0,30.09,South,172,0.0,4.0,81,0.00,,,0.00,,2013-10-09 17:42:00,
2013-10-09 12:52:00,76.0,69.0,30.08,SSE,166,0.0,4.0,78,0.00,,,0.00,,2013-10-09 17:52:00,
2013-10-09 13:22:00,78.0,69.0,30.07,SSW,204,1.0,6.0,74,0.00,,,0.00,,2013-10-09 18:22:00,
2013-10-09 13:42:00,78.0,68.0,30.07,NE,38,1.0,6.0,72,0.00,,,0.00,,2013-10-09 18:42:00,
2013-10-09 13:52:00,77.0,67.0,30.06,NNE,33,1.0,6.0,72,0.00,,,0.00,,2013-10-09 18:52:00,
2013-10-09 14:11:00,78.0,68.0,30.06,NNE,28,3.0,6.0,71,0.00,,,0.00,,2013-10-09 19:11:00,
2013-10-09 14:22:00,78.0,68.0,30.06,SW,217,0.0,6.0,72,0.00,,,0.00,,2013-10-09 19:22:00,
2013-10-09 14:42:00,78.0,68.0,30.06,NNE,33,0.0,6.0,71,0.00,,,0.00,,2013-10-09 19:42:00,
2013-10-09 14:53:00,76.0,66.0,30.05,NNE,33,0.0,6.0,71,0.00,,,0.00,,2013-10-09 19:53:00,
2013-10-09 15:22:00,79.0,67.0,30.03,SSW,204,0.0,6.0,66,0.00,,,0.00,,2013-10-09 20:22:00,
2013-10-09 15:43:00,79.0,67.0,30.03,South,191,0.0,6.0,66,0.00,,,0.00,,2013-10-09 20:43:00,
2013-10-09 15:52:00,79.0,66.0,30.03,ENE,57,0.0,6.0,65,0.00,,,0.00,,2013-10-09 20:52:00,
2013-10-09 16:22:00,78.0,67.0,30.03,South,187,0.0,6.0,68,0.00,,,0.00,,2013-10-09 21:22:00,
2013-10-09 16:44:00,79.0,67.0,30.03,South,186,0.0,6.0,67,0.00,,,0.00,,2013-10-09 21:44:00,
2013-10-09 16:54:00,78.0,66.0,30.03,NE,38,0.0,6.0,67,0.00,,,0.00,,2013-10-09 21:54:00,
2013-10-09 17:24:00,77.0,66.0,30.03,NNE,28,0.0,6.0,68,0.00,,,0.00,,2013-10-09 22:24:00,
2013-10-09 17:43:00,76.0,65.0,30.03,NNE,28,0.0,6.0,69,0.00,,,0.00,,2013-10-09 22:43:00,
2013-10-09 17:53:00,75.0,65.0,30.03,NNW,331,0.0,6.0,72,0.00,,,0.00,,2013-10-09 22:53:00,
2013-10-09 18:22:00,74.0,65.0,30.03,NNW,331,0.0,6.0,74,0.00,,,0.00,,2013-10-09 23:22:00,
2013-10-09 18:53:00,72.0,64.0,30.04,NNW,331,0.0,6.0,76,0.00,,,0.00,,2013-10-09 23:53:00,
2013-10-09 19:12:00,71.0,63.0,30.04,NNW,331,0.0,6.0,77,0.00,,,0.00,,2013-10-10 00:12:00,
2013-10-09 19:22:00,70.0,64.0,30.04,NNW,331,0.0,6.0,80,0.00,,,0.00,,2013-10-10 00:22:00,
2013-10-09 19:42:00,69.0,63.0,30.04,NNW,331,0.0,6.0,81,0.00,,,0.00,,2013-10-10 00:42:00,
2013-10-09 19:52:00,68.0,63.0,30.05,NNW,331,0.0,6.0,84,0.00,,,0.00,,2013-10-10 00:52:00,
2013-10-09 20:21:00,67.0,62.0,30.06,NNW,331,0.0,6.0,85,0.00,,,0.00,,2013-10-10 01:21:00,
2013-10-09 20:42:00,67.0,63.0,30.06,NNW,331,0.0,6.0,86,0.00,,,0.00,,2013-10-10 01:42:00,
2013-10-09 20:52:00,66.0,62.0,30.06,NNW,331,0.0,6.0,87,0.00,,,0.00,,2013-10-10 01:52:00,
2013-10-09 21:12:00,66.0,62.0,30.06,NNW,331,0.0,6.0,87,0.00,,,0.00,,2013-10-10 02:12:00,
2013-10-09 21:22:00,65.0,61.0,30.06,NNW,331,0.0,6.0,88,0.00,,,0.00,,2013-10-10 02:22:00,
2013-10-09 22:22:00,66.0,64.0,30.07,NNW,331,0.0,6.0,92,0.00,,,0.00,,2013-10-10 03:22:00,
2013-10-09 22:44:00,66.0,63.0,30.07,NNW,331,0.0,6.0,91,0.00,,,0.00,,2013-10-10 03:44:00,
2013-10-09 22:55:00,66.0,63.0,30.07,NNW,331,0.0,6.0,91,0.00,,,0.00,,2013-10-10 03:55:00,
2013-10-09 23:24:00,65.0,63.0,30.07,NNW,331,0.0,6.0,92,0.00,,,0.00,,2013-10-10 04:24:00,
2013-10-09 23:47:00,65.0,63.0,30.06,NNW,331,0.0,6.0,92,0.00,,,0.00,,2013-10-10 04:47:00,
2013-10-09 23:54:00,64.0,62.0,30.06,NNW,331,0.0,6.0,92,0.00,,,0.00,,2013-10-10 04:54:00,